Location: Peach Mountain Observatory
(42.3967°N, 83.9367°W)
Time: 22:00:42
(UTC-04:00)

deb Explorer IX - Pass Details

Date: 22 January 2020
Orbit: 548 x 1100 km, 38.8° (Epoch: 08 April)

Event Time Altitude Azimuth Distance (km) Brightness Sun altitude
Rises 02:12:08 0° 267° (W) 3,910 - -61.1°
Reaches altitude 10° 02:14:58 10° 264° (W) 2,943 - -60.8°
Maximum altitude 02:22:09 66° 185° (S) 1,138 - -59.8°
Drops below altitude 10° 02:28:44 10° 105° (ESE) 2,703 - -58.9°
Sets 02:31:14 0° 102° (ESE) 3,573 - -58.5°
